Total_Precipitation_Accumulation
0.06 0.08 0.11 0.15 0.12 0.10 0.10 0.16 0.26 0.22 0.20 0.22 0.22 0.21 0.24 0.25 0.22 0.18 0.16 0.14 0.15 0.18 0.21 0.26 0.25 0.22 0.20 0.17 0.17 0.23 0.28 0.35 0.44 0.39 0.34 0.31 0.28 0.22 0.20 0.24 0.29 0.43 0.51 0.57
0.03 0.06 0.09 0.11 0.13 0.09 0.07 0.07 0.10 0.14 0.20 0.20 0.20 0.20 0.21 0.19 0.17 0.16 0.16 0.13 0.12 0.14 0.17 0.19 0.16 0.11 0.08 0.08 0.11 0.18 0.24 0.29 0.36 0.36 0.29 0.23 0.19 0.14 0.14 0.20 0.28 0.36 0.39 0.45
0.05 0.06 0.08 0.14 0.13 0.09 0.06 0.05 0.06 0.14 0.23 0.21 0.21 0.21 0.18 0.17 0.15 0.12 0.10 0.08 0.07 0.06 0.06 0.05 0.05 0.04 0.05 0.06 0.07 0.15 0.25 0.32 0.37 0.42 0.42 0.31 0.18 0.16 0.19 0.25 0.33 0.38 0.37 0.37
0.06 0.09 0.19 0.16 0.09 0.07 0.07 0.05 0.06 0.09 0.10 0.11 0.10 0.08 0.07 0.07 0.06 0.04 0.04 0.04 0.03 0.03 0.02 0.03 0.03 0.05 0.08 0.07 0.08 0.14 0.24 0.31 0.34 0.39 0.40 0.36 0.31 0.30 0.33 0.39 0.46 0.47 0.41 0.40
0.07 0.09 0.14 0.11 0.11 0.11 0.11 0.09 0.08 0.08 0.06 0.06 0.07 0.06 0.07 0.05 0.04 0.04 0.04 0.05 0.04 0.03 0.03 0.04 0.05 0.08 0.13 0.13 0.16 0.21 0.30 0.39 0.40 0.42 0.42 0.37 0.35 0.39 0.44 0.50 0.50 0.51 0.46 0.44
0.14 0.15 0.17 0.15 0.16 0.16 0.14 0.19 0.11 0.10 0.07 0.05 0.04 0.09 0.12 0.06 0.03 0.03 0.05 0.08 0.08 0.05 0.05 0.07 0.09 0.12 0.17 0.23 0.28 0.35 0.45 0.51 0.49 0.54 0.56 0.52 0.53 0.55 0.54 0.58 0.53 0.49 0.47 0.51
0.18 0.23 0.23 0.20 0.19 0.17 0.24 0.29 0.13 0.11 0.08 0.06 0.06 0.08 0.07 0.05 0.03 0.02 0.03 0.03 0.04 0.06 0.06 0.08 0.11 0.15 0.24 0.30 0.34 0.38 0.41 0.49 0.55 0.62 0.69 0.73 0.78 0.75 0.71 0.67 0.64 0.59 0.55 0.56
0.31 0.37 0.32 0.19 0.14 0.20 0.26 0.21 0.16 0.13 0.10 0.07 0.07 0.07 0.05 0.03 0.03 0.03 0.03 0.04 0.05 0.07 0.06 0.09 0.12 0.19 0.26 0.31 0.33 0.37 0.42 0.51 0.58 0.64 0.64 0.73 0.98 0.98 1.00 0.95 0.83 0.75 0.72 0.65
0.31 0.30 0.20 0.17 0.19 0.19 0.21 0.22 0.17 0.15 0.11 0.08 0.07 0.06 0.05 0.05 0.05 0.04 0.04 0.05 0.06 0.10 0.12 0.15 0.19 0.30 0.42 0.40 0.40 0.45 0.51 0.58 0.62 0.63 0.71 0.85 0.99 1.04 1.08 1.05 0.93 0.84 0.82 0.79
0.28 0.29 0.28 0.21 0.19 0.20 0.18 0.15 0.14 0.12 0.10 0.09 0.09 0.09 0.08 0.08 0.07 0.08 0.08 0.08 0.11 0.16 0.23 0.31 0.36 0.43 0.54 0.51 0.52 0.57 0.59 0.62 0.65 0.70 0.73 0.82 0.98 1.00 0.99 0.96 0.94 0.91 0.90 0.86
0.30 0.26 0.24 0.21 0.25 0.23 0.15 0.13 0.12 0.09 0.09 0.10 0.10 0.10 0.09 0.08 0.09 0.10 0.10 0.11 0.16 0.25 0.34 0.42 0.50 0.56 0.60 0.63 0.69 0.74 0.70 0.67 0.71 0.76 0.81 0.88 0.93 0.99 0.94 0.89 0.80 0.82 0.84 0.83
0.30 0.27 0.36 0.34 0.23 0.16 0.13 0.10 0.09 0.09 0.09 0.09 0.10 0.10 0.09 0.09 0.10 0.11 0.12 0.13 0.18 0.26 0.36 0.45 0.53 0.61 0.66 0.76 0.89 0.96 0.94 0.84 0.84 0.86 0.90 0.96 0.96 0.86 0.72 0.64 0.51 0.49 0.54 0.59
0.24 0.23 0.26 0.21 0.16 0.15 0.13 0.11 0.09 0.08 0.09 0.09 0.08 0.09 0.09 0.10 0.11 0.12 0.14 0.16 0.21 0.28 0.35 0.41 0.47 0.58 0.68 0.82 0.90 0.95 0.98 0.97 0.92 0.94 0.98 0.99 1.00 0.96 0.87 0.72 0.57 0.48 0.44 0.47
0.19 0.20 0.18 0.15 0.14 0.13 0.11 0.11 0.09 0.08 0.08 0.08 0.08 0.10 0.10 0.11 0.12 0.14 0.16 0.18 0.21 0.28 0.36 0.42 0.49 0.56 0.66 0.79 0.89 0.92 0.92 0.91 0.91 0.96 0.98 0.95 0.94 0.96 1.00 0.94 0.83 0.71 0.54 0.50
0.19 0.20 0.22 0.21 0.17 0.16 0.16 0.14 0.14 0.13 0.11 0.09 0.09 0.09 0.11 0.13 0.14 0.15 0.16 0.19 0.24 0.29 0.35 0.44 0.56 0.62 0.71 0.80 0.85 0.90 0.93 0.92 0.94 0.92 0.93 0.94 0.92 0.90 0.94 0.98 0.96 0.86 0.71 0.63
0.27 0.26 0.23 0.17 0.15 0.14 0.14 0.14 0.14 0.14 0.14 0.13 0.12 0.11 0.12 0.13 0.14 0.15 0.18 0.24 0.33 0.40 0.47 0.57 0.61 0.67 0.82 0.92 0.96 0.98 1.00 0.99 1.02 0.99 0.88 0.86 0.89 0.92 0.93 0.98 0.99 0.90 0.77 0.66
0.35 0.33 0.26 0.20 0.18 0.17 0.17 0.17 0.17 0.16 0.15 0.14 0.14 0.13 0.14 0.15 0.16 0.17 0.19 0.24 0.32 0.38 0.50 0.63 0.64 0.66 0.81 0.96 1.05 1.06 0.99 0.92 0.93 0.95 0.87 0.77 0.80 0.85 0.87 0.89 0.86 0.78 0.69 0.56
0.34 0.31 0.27 0.26 0.25 0.23 0.22 0.22 0.22 0.21 0.21 0.19 0.18 0.18 0.20 0.23 0.26 0.26 0.28 0.31 0.35 0.38 0.41 0.49 0.58 0.66 0.76 0.89 0.99 1.03 1.02 0.97 0.91 0.89 0.86 0.78 0.74 0.77 0.81 0.79 0.70 0.64 0.59 0.50
0.25 0.23 0.22 0.23 0.25 0.26 0.27 0.29 0.29 0.29 0.29 0.28 0.29 0.29 0.29 0.30 0.33 0.35 0.37 0.42 0.54 0.60 0.54 0.52 0.61 0.63 0.72 0.84 0.96 0.95 0.98 1.01 0.94 0.80 0.77 0.77 0.71 0.72 0.67 0.63 0.58 0.56 0.52 0.47
0.23 0.25 0.27 0.30 0.34 0.38 0.40 0.40 0.41 0.41 0.39 0.39 0.38 0.39 0.39 0.38 0.41 0.45 0.48 0.53 0.62 0.72 0.69 0.65 0.60 0.56 0.64 0.81 0.92 0.87 0.83 0.89 0.86 0.74 0.73 0.77 0.71 0.64 0.53 0.51 0.50 0.50 0.50 0.47
0.27 0.31 0.35 0.37 0.40 0.42 0.44 0.47 0.48 0.46 0.43 0.42 0.43 0.44 0.44 0.42 0.42 0.51 0.66 0.69 0.63 0.68 0.69 0.67 0.60 0.57 0.60 0.77 0.83 0.82 0.77 0.75 0.76 0.71 0.67 0.67 0.65 0.59 0.50 0.50 0.49 0.47 0.43 0.42
0.27 0.30 0.34 0.35 0.35 0.33 0.31 0.33 0.33 0.34 0.32 0.32 0.35 0.38 0.44 0.46 0.45 0.50 0.59 0.69 0.72 0.74 0.67 0.64 0.61 0.59 0.57 0.67 0.72 0.79 0.81 0.74 0.71 0.64 0.61 0.57 0.58 0.56 0.49 0.46 0.42 0.37 0.36 0.37
0.16 0.16 0.18 0.19 0.20 0.19 0.16 0.17 0.21 0.26 0.28 0.29 0.32 0.41 0.54 0.57 0.57 0.66 0.66 0.60 0.67 0.68 0.63 0.60 0.59 0.56 0.51 0.53 0.64 0.72 0.77 0.75 0.71 0.62 0.56 0.52 0.48 0.46 0.43 0.38 0.33 0.31 0.32 0.33
0.05 0.06 0.07 0.07 0.09 0.12 0.14 0.15 0.18 0.21 0.24 0.27 0.29 0.39 0.60 0.72 0.67 0.62 0.61 0.60 0.57 0.52 0.50 0.50 0.45 0.43 0.44 0.44 0.54 0.61 0.69 0.71 0.72 0.63 0.55 0.50 0.42 0.41 0.44 0.42 0.35 0.31 0.30 0.29
0.03 0.03 0.04 0.07 0.13 0.20 0.26 0.27 0.24 0.23 0.29 0.32 0.31 0.39 0.55 0.70 0.79 0.71 0.59 0.52 0.49 0.44 0.44 0.41 0.38 0.41 0.42 0.45 0.53 0.62 0.68 0.69 0.69 0.65 0.56 0.50 0.44 0.43 0.46 0.44 0.39 0.33 0.31 0.29
0.04 0.06 0.08 0.12 0.20 0.30 0.36 0.38 0.40 0.41 0.48 0.54 0.52 0.55 0.63 0.66 0.70 0.69 0.61 0.51 0.45 0.45 0.45 0.43 0.40 0.39 0.42 0.49 0.54 0.61 0.68 0.69 0.66 0.60 0.50 0.46 0.41 0.41 0.45 0.43 0.37 0.34 0.30 0.25
0.07 0.10 0.15 0.19 0.26 0.36 0.42 0.49 0.56 0.62 0.70 0.80 0.86 0.80 0.80 0.79 0.74 0.65 0.56 0.47 0.41 0.41 0.42 0.41 0.37 0.35 0.39 0.48 0.55 0.62 0.62 0.62 0.57 0.52 0.50 0.47 0.44 0.45 0.47 0.43 0.38 0.33 0.26 0.23